Temperature
24 22 23 23 24 25 24 24 23 24 24 23 23 22 22 21 21 21 21 20 20 20 21 20 20 20 20 19 19 19 19 18 18 18 18 18 18 18 17 17 17 17 17 17
23 23 24 24 24 24 24 24 24 24 24 24 22 22 22 21 21 21 21 21 20 20 20 20 20 20 20 20 19 19 19 19 19 18 18 18 18 18 18 17 17 17 17 17
24 24 25 25 25 24 24 24 24 24 24 23 23 22 21 21 21 21 21 21 21 21 21 21 20 20 20 20 20 19 19 19 19 18 18 18 18 18 18 18 17 17 17 17
24 24 25 25 25 25 23 24 24 24 23 21 22 21 21 20 20 20 21 21 21 21 21 21 21 20 20 20 20 19 19 19 19 18 18 18 18 18 18 18 18 18 17 17
24 25 25 25 25 25 24 24 24 23 22 21 21 21 20 20 20 20 21 21 21 21 21 21 21 21 20 20 20 20 19 19 19 19 19 18 18 18 18 18 18 18 17 17
24 24 25 25 25 25 24 23 22 19 19 21 21 21 21 19 20 21 21 21 21 21 21 21 21 21 20 20 20 19 19 19 19 19 19 18 18 18 18 18 18 18 18 17
24 24 24 25 24 24 23 21 21 21 20 20 20 20 20 21 21 21 21 21 21 21 21 21 21 21 20 20 20 19 19 19 19 19 19 18 18 18 18 18 18 18 18 17
23 23 24 24 24 23 22 22 21 21 21 20 20 20 21 21 21 22 21 21 21 21 21 21 21 21 21 20 20 20 19 19 19 19 19 19 18 18 18 18 18 18 18 18
22 22 24 24 24 23 22 21 20 19 20 20 20 20 20 21 21 20 21 21 21 21 20 20 21 21 21 21 20 20 20 19 19 19 19 19 18 18 18 18 18 18 18 18
22 23 23 23 23 22 22 19 18 19 20 20 21 20 20 21 20 19 19 20 21 21 20 20 20 21 21 21 20 20 20 19 19 19 19 19 19 19 18 18 18 18 18 17
21 21 22 22 22 22 21 20 17 17 18 19 20 20 20 20 19 19 19 20 20 21 21 21 20 20 21 21 21 20 20 19 19 19 19 19 19 18 18 18 18 18 18 17
19 18 19 21 22 21 21 20 18 19 18 17 18 19 21 19 19 19 19 20 20 21 21 21 20 20 20 20 20 20 20 19 19 19 19 19 19 18 18 18 18 18 18 17
19 18 19 20 21 21 21 20 18 16 16 16 18 20 20 18 18 19 19 19 20 20 20 20 20 20 20 20 20 20 19 19 19 19 19 19 18 18 18 18 18 18 17 17
19 17 19 20 20 20 20 20 19 18 17 17 18 19 19 18 18 18 18 19 19 20 20 20 20 20 20 20 20 20 19 19 19 19 19 19 18 18 18 18 18 18 17 17
18 18 18 19 20 20 20 20 19 19 18 18 18 18 18 18 18 18 18 19 19 19 19 19 19 20 20 19 19 20 19 19 19 19 19 18 18 18 18 18 18 17 17 17
16 17 18 19 19 19 19 19 19 19 18 18 18 18 18 18 18 18 18 18 18 18 19 19 19 19 19 19 19 19 19 19 19 19 19 18 18 18 17 17 17 17 17 17
15 16 17 18 18 19 18 18 18 18 18 18 18 18 17 17 17 17 18 18 18 18 18 19 19 19 19 19 19 19 19 18 18 18 18 18 18 17 17 17 17 17 17 17
15 14 14 16 18 19 18 18 18 18 18 17 17 17 17 17 17 18 18 18 18 18 18 19 19 19 19 19 18 18 18 18 18 18 17 17 17 17 17 17 17 16 16 16
14 14 14 14 16 18 18 18 18 17 17 17 17 17 17 17 17 17 18 18 18 18 19 18 18 18 18 18 18 18 18 18 17 17 17 17 17 17 17 16 16 16 16 16
13 13 14 14 17 17 18 18 18 18 17 17 17 16 16 17 16 16 18 18 18 18 18 18 18 18 18 18 18 17 17 17 17 17 17 17 17 16 16 16 16 15 15 15
15 14 14 15 16 16 17 18 18 18 17 17 17 17 17 16 16 17 17 17 17 17 17 17 17 17 17 17 17 17 16 16 16 16 16 16 16 16 16 15 15 15 15 15
14 14 14 13 16 17 16 17 17 16 17 17 17 17 17 17 17 17 17 17 17 17 17 17 17 17 17 17 16 16 16 16 16 16 16 16 15 15 15 15 15 15 14 14
13 13 13 13 14 15 15 16 17 17 16 17 17 17 17 17 17 17 17 17 17 16 16 16 16 16 16 16 16 16 16 16 16 15 15 15 15 15 15 14 14 14 14 14
13 12 12 13 14 14 15 16 17 17 17 17 17 17 17 17 17 16 16 16 16 16 16 16 15 15 15 15 15 15 15 15 15 15 15 15 14 14 14 14 14 14 14 13
13 13 12 13 14 15 16 16 16 17 17 17 17 17 17 16 16 16 16 16 15 15 15 15 15 15 15 15 15 15 15 15 15 15 14 14 14 14 14 13 13 13 13 13
12 13 13 13 14 14 15 16 16 16 17 17 16 16 16 16 16 16 16 16 15 15 15 15 15 15 14 14 14 14 15 15 15 14 14 14 14 13 13 13 13 13 13 12
Wind_Speed
3 4 3 7 7 5 4 3 3 4 2 2 3 3 4 8 8 9 9 9 9 9 7 6 6 6 5 4 5 5 4 3 3 2 2 2 1 1 1 1 3 3 4 4
4 3 7 4 3 4 4 2 2 3 1 2 0 2 2 6 9 9 10 11 10 8 6 6 6 6 7 7 6 5 5 4 4 3 2 2 2 2 1 1 2 2 3 4
6 6 3 3 2 2 2 5 4 2 2 4 3 4 2 2 3 4 5 7 8 10 9 8 7 7 7 7 7 7 6 5 4 4 3 3 3 2 2 2 1 1 2 3
5 4 3 2 3 5 3 4 5 3 3 2 2 2 5 3 3 5 6 7 8 8 8 8 8 8 9 9 7 6 6 5 4 5 4 5 4 3 2 1 1 1 2 3
5 3 3 4 5 6 5 3 4 3 4 2 2 1 7 1 4 8 8 8 8 8 9 9 9 9 8 8 7 7 6 6 5 5 5 5 4 3 2 2 1 1 1 1
5 2 3 4 1 4 5 6 7 6 5 1 2 3 6 3 7 6 7 8 8 9 9 8 8 7 6 6 6 6 6 6 5 6 5 6 5 4 4 2 2 1 1 0
3 3 2 2 3 2 5 6 4 4 3 4 2 2 7 6 5 6 7 7 7 7 8 7 7 8 8 7 7 7 7 7 6 6 6 6 6 6 5 4 3 3 2 1
2 4 3 1 5 6 4 8 7 5 5 4 1 4 6 4 4 3 4 5 6 7 7 8 8 8 8 8 8 8 8 7 7 7 6 5 5 5 4 4 4 4 3 3
5 5 4 2 1 7 6 4 6 7 3 0 4 6 7 3 4 3 1 3 6 7 7 8 8 8 7 8 8 8 8 7 7 7 6 5 5 5 4 4 4 3 3 3
7 3 3 2 4 5 5 8 6 6 5 3 4 4 5 5 4 3 1 2 4 6 7 7 7 7 7 7 7 6 7 8 7 6 6 6 5 5 4 4 4 3 3 3
5 4 3 3 2 2 3 5 6 5 5 6 3 6 4 6 4 4 3 2 3 5 7 6 6 6 6 6 6 6 6 6 6 6 6 5 5 5 4 4 3 3 3 3
4 5 1 4 4 2 4 5 6 5 4 4 4 6 3 3 3 3 2 1 1 3 4 5 5 5 5 6 6 6 6 5 5 5 5 5 4 4 4 4 4 3 3 3
5 6 2 5 5 3 3 3 4 6 5 5 5 6 2 3 3 1 0 1 1 1 2 3 3 4 6 6 6 6 5 6 5 4 5 4 4 4 4 4 3 3 3 3
5 4 6 8 7 3 0 0 3 5 4 4 6 6 4 4 3 3 1 1 0 1 2 3 3 4 5 5 6 6 6 6 5 5 5 5 5 5 4 3 3 3 4 4
5 4 3 3 2 3 1 1 3 3 6 7 7 6 7 5 5 3 1 1 1 1 2 3 2 2 2 3 4 5 5 5 5 5 5 6 5 5 4 4 4 4 4 4
4 4 2 1 1 2 1 2 2 3 3 4 4 6 5 3 1 1 1 1 1 0 1 2 2 2 2 2 3 4 5 5 5 6 6 5 5 5 5 5 4 4 4 3
2 5 3 2 2 2 2 4 4 3 3 5 7 7 3 1 1 2 2 1 0 1 1 2 2 2 2 3 3 4 4 4 5 5 4 4 4 4 5 5 4 4 4 4
6 5 4 2 2 3 6 3 4 3 3 3 4 3 3 3 2 1 1 2 1 1 1 2 2 2 2 2 2 3 2 3 4 3 3 3 4 4 4 3 4 4 4 4
4 7 5 4 3 3 4 2 3 3 3 3 4 2 1 2 2 2 1 1 0 1 1 1 1 2 2 3 3 4 3 3 3 2 3 3 4 4 3 4 4 3 3 4
5 5 5 4 4 6 7 3 2 3 3 3 3 3 2 2 1 3 2 1 1 1 1 1 2 2 2 2 3 4 3 3 2 3 3 2 3 3 4 4 3 2 3 3
4 4 3 4 4 6 5 2 3 4 6 2 2 3 2 2 4 3 1 1 1 1 1 2 3 3 2 2 4 4 3 2 3 2 1 2 2 3 3 2 2 2 1 1
3 3 3 4 3 6 2 2 4 5 2 1 2 2 3 3 3 2 1 1 2 2 2 2 3 2 1 2 4 3 2 2 1 1 1 1 1 1 1 2 1 2 2 2
3 5 5 6 5 4 2 3 3 3 2 2 2 3 3 3 3 2 2 2 2 2 2 2 3 2 1 1 3 3 2 1 1 2 1 1 1 1 1 2 2 2 2 2
2 2 3 1 3 3 3 2 2 1 2 2 2 3 3 3 3 2 1 2 2 2 2 2 3 2 0 0 0 2 2 2 2 2 1 1 1 1 1 1 1 2 2 2
4 2 2 1 3 3 3 2 1 1 1 1 1 1 2 3 3 3 3 3 3 2 1 2 3 2 1 0 0 0 1 3 3 2 1 1 1 1 1 1 1 1 1 2
4 5 5 6 6 4 4 3 1 1 1 1 1 1 1 3 4 3 3 3 3 2 2 2 1 1 1 0 1 1 1 3 4 2 2 1 1 1 2 2 2 3 1 1
Wind_Direction
75 87 208 219 193 190 182 184 246 258 219 156 201 225 204 183 181 185 188 189 196 203 198 180 177 171 164 166 168 172 167 160 143 131 133 128 148 124 107 151 163 162 160 155
50 258 233 212 174 151 157 163 259 307 46 143 159 313 225 190 199 198 195 194 198 195 184 179 174 174 178 183 183 178 179 171 165 164 154 145 136 133 128 114 119 151 159 160
197 235 213 164 181 164 196 185 208 218 40 53 67 341 299 236 213 208 206 199 196 195 192 189 183 184 184 189 191 190 187 182 176 154 125 106 90 76 72 67 72 102 150 156
233 241 189 190 213 165 238 215 182 159 106 338 79 286 286 253 235 221 215 203 202 201 193 191 188 188 192 197 191 186 180 179 174 155 147 145 151 159 178 159 146 107 138 149
240 207 186 211 222 170 194 133 125 118 118 58 26 155 290 292 251 239 224 212 206 198 191 193 193 194 194 191 186 184 175 177 172 164 166 162 165 174 146 127 119 114 105 145
243 251 198 207 191 152 135 79 61 54 73 32 255 172 284 249 238 249 228 216 204 194 190 190 187 179 181 176 175 176 173 181 177 173 172 174 175 170 152 155 166 175 158 143
325 320 316 123 99 60 99 95 42 9 12 256 256 192 253 263 254 234 223 213 199 189 182 180 181 183 184 179 179 175 178 186 184 181 185 188 186 179 181 186 187 185 189 211
176 289 271 194 174 177 171 142 156 188 218 273 327 235 254 284 291 263 210 187 175 179 182 185 186 189 190 186 184 181 188 191 186 186 192 193 188 187 194 193 191 195 204 212
173 245 285 252 189 140 142 151 152 133 136 275 283 286 300 330 351 4 44 155 172 180 181 187 187 187 187 184 185 188 185 189 191 190 188 187 189 188 192 195 195 201 209 209
155 211 290 307 67 42 126 139 102 122 149 219 284 281 272 295 299 312 327 207 195 182 182 184 187 191 189 187 187 185 188 195 195 189 193 197 196 194 190 186 194 197 204 205
130 153 311 24 107 183 84 88 103 117 148 158 219 265 242 245 246 242 254 252 208 186 183 184 190 194 187 180 180 182 191 193 191 191 191 194 194 190 187 191 201 206 207 199
135 126 212 269 271 198 143 149 143 150 194 167 174 257 285 248 253 219 239 267 238 194 183 179 183 184 179 178 179 181 189 193 196 190 186 193 191 181 189 203 209 207 213 217
133 113 89 347 343 9 77 107 124 120 118 151 173 251 318 3 348 339 38 335 24 134 149 155 167 184 186 184 183 181 186 192 192 176 174 180 187 189 206 216 214 209 215 222
117 112 163 192 212 202 153 85 140 122 145 189 216 235 296 317 309 315 315 192 94 131 143 150 176 197 193 189 187 185 193 191 185 176 177 189 198 201 208 219 216 221 222 223
103 136 184 217 210 146 149 226 187 178 183 187 216 217 247 249 249 263 247 184 119 117 149 155 175 196 193 191 190 187 190 184 181 181 189 204 204 201 199 205 213 219 225 230
81 136 126 351 29 132 82 321 209 211 199 199 209 249 247 248 249 304 294 174 190 247 179 165 164 168 186 198 194 183 184 181 177 186 197 201 193 192 200 207 211 214 222 226
112 128 123 227 274 56 292 252 215 205 215 181 208 232 224 218 238 243 253 235 256 301 242 194 185 180 195 200 184 184 187 173 175 189 196 196 192 201 209 209 206 214 220 221
143 124 132 138 99 215 244 236 179 180 250 227 218 216 201 206 232 265 186 146 138 280 247 219 201 177 172 173 166 156 147 155 165 179 192 197 201 207 206 192 215 224 220 220
157 140 127 129 160 257 272 230 174 169 263 245 202 190 155 133 63 6 32 73 184 247 223 205 189 170 150 148 151 132 127 132 149 183 205 204 200 201 197 202 215 220 216 221
64 96 120 133 156 219 234 218 167 113 276 254 192 170 166 104 87 270 304 317 7 44 80 102 94 100 118 123 127 126 134 142 181 207 212 195 185 195 208 216 216 217 220 227
47 54 115 157 192 249 253 264 118 170 233 234 185 181 178 193 212 236 278 308 85 63 55 86 103 115 142 139 127 127 140 186 216 213 196 178 185 193 200 203 198 184 190 186
163 146 170 155 176 242 279 121 177 217 242 236 206 204 192 191 201 198 186 164 121 101 82 95 103 94 100 135 134 136 174 224 204 163 154 158 163 198 183 161 164 156 143 130
189 193 183 187 210 254 275 234 233 193 209 235 207 227 200 200 209 196 177 164 140 129 121 111 117 114 86 128 148 162 212 205 136 132 151 162 134 111 125 151 161 152 140 145
256 166 146 232 277 291 297 287 286 227 218 236 221 217 203 200 196 185 174 163 145 131 132 126 124 124 109 334 157 193 203 158 138 147 165 158 141 97 78 101 144 154 163 160
224 170 141 243 278 332 316 298 305 355 34 46 353 213 188 176 181 173 179 177 164 153 153 146 149 159 200 260 199 225 181 144 140 141 155 149 140 124 93 70 49 163 173 179
211 191 182 216 215 201 246 269 281 55 13 104 111 73 124 163 172 164 164 165 157 157 140 127 127 140 165 77 354 315 196 152 146 149 159 162 150 129 118 90 36 33 59 55
Height
1489 1495 1500 1497 1496 1497 1500 1505 1508 1503 1496 1499 1502 1502 1500 1501 1502 1504 1506 1508 1510 1511 1514 1516 1518 1519 1521 1522 1523 1524 1525 1525 1526 1526 1527 1528 1529 1530 1531 1533 1534 1535 1536 1537
1495 1498 1491 1489 1491 1495 1499 1506 1506 1501 1496 1499 1504 1504 1500 1500 1501 1502 1503 1506 1508 1511 1513 1515 1517 1519 1520 1521 1522 1523 1524 1525 1526 1527 1528 1529 1530 1531 1532 1534 1535 1536 1537 1538
1494 1491 1486 1488 1492 1496 1499 1504 1504 1504 1500 1501 1505 1509 1504 1501 1501 1503 1504 1505 1507 1509 1510 1513 1515 1517 1518 1520 1521 1523 1524 1526 1527 1528 1529 1530 1531 1532 1533 1534 1536 1537 1538 1539
1490 1486 1486 1489 1492 1493 1502 1494 1496 1500 1508 1517 1512 1526 1509 1503 1502 1501 1501 1503 1504 1507 1509 1511 1512 1514 1516 1518 1520 1522 1524 1525 1527 1528 1529 1530 1531 1532 1534 1535 1537 1538 1538 1539
1489 1485 1486 1489 1488 1489 1494 1491 1495 1501 1509 1518 1517 1524 1516 1505 1504 1499 1498 1499 1501 1503 1505 1508 1510 1512 1514 1516 1518 1520 1522 1524 1526 1528 1529 1530 1531 1533 1534 1536 1537 1538 1539 1540
1484 1481 1482 1483 1483 1485 1488 1495 1502 1510 1517 1531 1522 1526 1521 1509 1501 1496 1494 1495 1497 1500 1502 1505 1507 1510 1512 1514 1516 1519 1521 1523 1525 1527 1528 1530 1531 1532 1534 1535 1536 1537 1538 1539
1489 1484 1481 1481 1486 1488 1491 1508 1528 1531 1538 1535 1521 1523 1518 1499 1494 1492 1491 1492 1494 1496 1499 1502 1505 1507 1509 1511 1514 1517 1519 1521 1523 1525 1527 1529 1530 1532 1533 1534 1535 1537 1538 1539
1499 1500 1485 1481 1485 1491 1495 1503 1526 1538 1541 1534 1524 1525 1507 1494 1490 1488 1488 1489 1491 1494 1497 1499 1502 1504 1507 1509 1512 1514 1516 1519 1521 1523 1525 1527 1529 1530 1532 1533 1534 1535 1537 1538
1500 1499 1482 1479 1479 1484 1495 1503 1504 1523 1529 1535 1529 1517 1502 1491 1490 1488 1488 1489 1490 1492 1495 1497 1500 1503 1505 1507 1509 1512 1515 1517 1519 1521 1523 1525 1527 1529 1530 1531 1533 1534 1535 1536
1488 1495 1485 1482 1480 1484 1488 1497 1511 1523 1536 1539 1529 1522 1514 1498 1494 1491 1489 1489 1489 1491 1494 1496 1498 1501 1503 1505 1508 1511 1513 1515 1517 1520 1521 1523 1525 1526 1528 1530 1531 1531 1532 1534
1484 1495 1492 1488 1490 1493 1494 1500 1510 1521 1523 1535 1537 1525 1498 1495 1492 1491 1489 1489 1488 1489 1491 1493 1496 1499 1501 1504 1506 1509 1511 1514 1516 1518 1520 1521 1523 1525 1526 1527 1528 1529 1530 1531
1485 1496 1503 1494 1486 1484 1488 1495 1505 1516 1523 1527 1529 1520 1490 1491 1489 1488 1488 1488 1488 1489 1491 1493 1496 1498 1500 1502 1504 1506 1509 1511 1513 1516 1518 1519 1521 1523 1524 1525 1526 1527 1528 1529
1484 1497 1509 1506 1500 1492 1492 1494 1500 1508 1519 1527 1527 1515 1490 1489 1488 1488 1488 1487 1487 1488 1490 1493 1495 1497 1499 1500 1502 1504 1507 1509 1511 1513 1515 1517 1519 1520 1521 1522 1524 1525 1525 1526
1479 1496 1504 1509 1503 1495 1495 1495 1497 1504 1516 1520 1515 1506 1495 1491 1489 1488 1487 1487 1487 1488 1490 1492 1494 1496 1497 1499 1500 1503 1505 1507 1510 1511 1513 1514 1516 1517 1518 1520 1521 1522 1523 1523
1480 1494 1494 1493 1489 1490 1492 1494 1495 1499 1502 1507 1504 1502 1495 1491 1489 1488 1488 1487 1488 1488 1489 1491 1493 1494 1496 1497 1499 1501 1503 1505 1507 1509 1510 1511 1512 1514 1515 1517 1518 1518 1520 1520
1483 1492 1493 1494 1490 1491 1494 1493 1493 1494 1496 1498 1498 1497 1489 1488 1489 1488 1488 1487 1488 1488 1488 1490 1491 1493 1495 1496 1497 1499 1501 1503 1505 1506 1507 1509 1510 1511 1512 1513 1514 1515 1516 1517
1488 1492 1499 1502 1495 1492 1501 1493 1492 1493 1491 1492 1495 1491 1487 1488 1488 1487 1488 1488 1487 1487 1488 1489 1490 1491 1493 1494 1496 1497 1499 1501 1502 1504 1504 1506 1507 1508 1509 1510 1510 1511 1512 1513
1487 1494 1502 1505 1500 1508 1497 1485 1486 1489 1489 1487 1486 1485 1486 1486 1487 1487 1487 1487 1487 1487 1487 1488 1489 1490 1492 1493 1495 1496 1498 1499 1500 1501 1502 1503 1504 1505 1505 1505 1507 1507 1508 1509
1480 1489 1501 1508 1508 1502 1492 1485 1485 1489 1490 1485 1484 1484 1485 1485 1486 1487 1487 1487 1486 1486 1486 1487 1488 1489 1490 1492 1493 1495 1496 1497 1498 1499 1500 1500 1501 1501 1501 1501 1502 1503 1504 1505
1482 1485 1497 1504 1505 1506 1491 1481 1481 1485 1491 1483 1482 1483 1485 1485 1489 1488 1486 1486 1486 1486 1486 1487 1487 1489 1490 1491 1492 1494 1494 1495 1496 1497 1498 1498 1498 1498 1498 1499 1499 1500 1501 1501
1490 1494 1498 1501 1501 1495 1482 1479 1481 1493 1489 1481 1481 1481 1483 1484 1485 1485 1485 1485 1485 1485 1485 1486 1486 1487 1489 1490 1491 1492 1493 1493 1494 1495 1495 1495 1495 1495 1496 1496 1496 1497 1497 1497
1492 1496 1499 1501 1500 1496 1479 1479 1483 1483 1479 1479 1479 1480 1481 1481 1482 1483 1484 1483 1483 1483 1484 1485 1485 1486 1488 1489 1490 1490 1491 1492 1493 1493 1492 1492 1493 1493 1494 1493 1494 1494 1495 1495
1489 1488 1489 1491 1490 1481 1478 1478 1477 1478 1478 1478 1478 1478 1479 1480 1480 1481 1482 1482 1482 1483 1483 1484 1485 1486 1487 1488 1489 1489 1490 1491 1491 1491 1491 1491 1491 1491 1491 1491 1491 1492 1492 1492
1484 1483 1485 1485 1482 1479 1478 1477 1476 1476 1477 1477 1477 1477 1478 1479 1479 1480 1480 1481 1481 1482 1483 1484 1485 1485 1486 1487 1488 1488 1489 1489 1490 1490 1490 1489 1489 1489 1489 1489 1490 1490 1490 1490
1482 1482 1483 1483 1480 1478 1477 1476 1476 1476 1476 1476 1476 1477 1477 1477 1478 1478 1479 1480 1480 1481 1482 1483 1484 1484 1485 1486 1487 1487 1488 1488 1488 1488 1488 1488 1488 1488 1488 1488 1488 1488 1488 1489
1477 1477 1479 1480 1476 1477 1477 1476 1476 1475 1475 1475 1475 1475 1476 1476 1476 1477 1478 1479 1480 1481 1482 1482 1483 1484 1484 1485 1485 1486 1486 1486 1487 1487 1487 1487 1487 1487 1486 1486 1486 1487 1488 1487